Regional Weather Roundup
Issued by NWS Upton, NY

Current Version | Previous Version | Text Only | Print | Product List | Glossary Off
Versions: 1 2 3 4 5 6 7 8 9 10 11 12 13 14 15 16 17 18 19 20 21 22 23 24 25 26 27 28 29 30 31 32 33 34 35 36 37 38 39 40 41 42 43 44 45 46 47 48
000 ASUS41 KOKX 281305 RWROKX REGIONAL WEATHER ROUNDUP NATIONAL WEATHER SERVICE NEW YORK NY 800 AM EST SAT FEB 28 2015 NOTE: "FAIR" INDICATES FEW OR NO CLOUDS BELOW 12,000 FEET WITH NO SIGNIFICANT WEATHER AND/OR OBSTRUCTIONS TO VISIBILITY. NYZ071-072-176-178-NJZ106-104-281400- NEW YORK CITY METRO AREA CITY SKY/WX TMP DP RH WIND PRES REMARKS CENTRAL PARK SUNNY 14 -3 47 VRB3 30.82R LAGUARDIA APRT MOSUNNY 16 -1 47 NW6 30.81R WCI 7 KENNEDY INTL MOSUNNY 18 -1 43 N9 30.81R WCI 7 NEWARK/LIBERTY MOSUNNY 15 -2 46 NW10 30.81R WCI 2 BRNX BOT. GARD N/A N/A N/A N/A N3 30.83R TETERBORO SUNNY 14 -4 44 N9 30.81R WCI 2 $$ NYZ177-179-078>081-281400- LONG ISLAND NEW YORK CITY SKY/WX TMP DP RH WIND PRES REMARKS FARMINGDALE SUNNY 16 2 54 N7 30.80R WCI 6 ISLIP MOSUNNY 17 3 54 N12 30.77R WCI 4 SHIRLEY SUNNY 17 3 54 N9 30.79R WCI 6 WESTHAMPTON SUNNY 16 3 56 NW14 30.79R WCI 2 MONTAUK POINT N/A 18 5 57 NW8 30.76R WCI 8 $$ NYZ052-065-067-281400- HUDSON VALLEY CITY SKY/WX TMP DP RH WIND PRES REMARKS WHITE PLAINS SUNNY 10 -2 58 NW7 30.75R WCI -1 NEWBURGH SUNNY 3 -4 72 CALM 30.78R MONTGOMERY SUNNY -3 -13 62 CALM 30.77R POUGHKEEPSIE SUNNY -1 -5 82 CALM 30.81R ALBANY SUNNY 7 -3 64 W7 30.79R WCI -5 $$ NJZ001-105-106-008-010-013-015-019>022-104-281400- NEW JERSEY CITY SKY/WX TMP DP RH WIND PRES REMARKS NEWARK/LIBERTY MOSUNNY 15 -2 46 NW10 30.81R WCI 2 TETERBORO SUNNY 14 -4 44 N9 30.81R WCI 2 CALDWELL SUNNY 11 -4 51 VRB5 30.81R WCI 3 MORRISTOWN SUNNY 12 -2 52 N7 30.81R WCI 2 SOMERVILLE MOSUNNY 10 -4 53 N5 30.79R WCI 2 SUSSEX SUNNY 9 -5 53 CALM 30.76R ANDOVER N/A 0 -5 79 CALM 30.77R TRENTON SUNNY 14 -3 47 VRB3 30.80R MILLVILLE SUNNY N/A N/A N/A N6 30.82R ATLANTIC CITY SUNNY 17 1 49 N10 30.81R WCI 5 WRIGHTSTOWN SUNNY 15 -3 44 N12 30.79R WCI 2 TOMS RIVER SUNNY 16 -2 45 NW10 30.81R WCI 3 BELMAR SUNNY 16 -4 41 NW9 30.79R WCI 4 $$ PAZ047>061-062-071-281400- EASTERN PENNSYLVANIA CITY SKY/WX TMP DP RH WIND PRES REMARKS PHILADELPHIA MOSUNNY 18 -3 39 N12 30.84R WCI 5 ALLENTOWN MOSUNNY 11 -6 46 NW5 30.80R WCI 3 SCRANTON MOSUNNY 6 -4 63 CALM 30.75R $$ CTZ002-004>006-009-010-012-RIZ004-006-007-MAZ004-011-015-281400- SOUTHERN NEW ENGLAND IN CT CITY SKY/WX TMP DP RH WIND PRES REMARKS BRADLEY INTL SUNNY 10 -2 58 W5 30.76R WCI 2 HARTFORD SUNNY 13 -1 54 VRB3 30.79R DANBURY SUNNY 7 -3 64 W5 30.77R WCI -2 WTRBRY/OXFORD NOT AVBL BRIDGEPORT SUNNY 13 1 59 VRB6 30.80R WCI 4 MERIDEN SUNNY 12 -1 56 NW7 30.78R WCI 1 NEW HAVEN SUNNY 14 1 56 NW7 30.77R WCI 4 CHESTER FAIR 14 1 57 N9 30.72R WCI 2 GROTON SUNNY 13 1 59 N13 30.75R WCI -2 WILLIMANTIC SUNNY 1 -6 72 CALM 30.75R IN RI CITY SKY/WX TMP DP RH WIND PRES REMARKS PROVIDENCE SUNNY 13 -2 51 NW6 30.73R WCI 4 BLOCK ISLAND SUNNY 16 3 57 N13 30.71R WCI 2 WESTERLY SUNNY 15 -1 49 N9 30.74R WCI 3 IN MA CITY SKY/WX TMP DP RH WIND PRES REMARKS BOSTON SUNNY 13 -1 54 NW12 30.73R WCI -1 WORCESTER SUNNY 9 -3 58 NW13 30.63R WCI -7 WESTFIELD SUNNY 3 -4 72 CALM 30.75R PROVINCETOWN SUNNY 21 7 53 NW13 30.70R WCI 9 NANTUCKET SUNNY 21 13 71 NW13 30.70R WCI 9 $$ ANZ330-335-338-340-345-350-353-355-281400- COASTAL MARINE OBSERVATIONS STATION/POSITION TIME SKY/WX TEMP WIND PRES VSBY WAVE AIR SEA DIR/SP/G HT/PER (UTC) (F) (DEG/KT/KT) (MB) (MI) (FT/S) NY HARB ENTRANCE 1300 19 38 350/ 8/ 12 1042.8 3/10 4S FIRE IS NOT AVBL 20S FIRE ISLAND 1200 36 1041.7 4/10 23SW MTP 1300 N/A 4/10 HUDSON CANYON NOT AVBL EXECUTION ROCKS NOT AVBL WESTERN LI SOUND NOT AVBL CENTRAL LI SOUND NOT AVBL EASTERN LI SOUND NOT AVBL ROBBINS REEF 1300 14 320/ 9/ 11 1042.0 $$ >>>>>>>>>>>>>>>>>>>>>>>>>>>> KEY <<<<<<<<<<<<<<<<<<<<<<<<<<< > < > SKY/WX - SKY CONDITION/PRESENT WEATHER < > TMP - TEMPERATURE IN FAHRENHEIT < > DP - DEWPOINT IN FAHRENHEIT < > RH - RELATIVE HUMIDITY IN PERCENT < > WIND - DIRECTION AND SPEED IN MPH < > PRES - MEAN SEA LEVEL PRESSURE IN INCHES OF HG < > WCI - WIND CHILL INDEX < > VSB - VISIBILITY IN MILES < > HX - HEAT INDEX < > TC - TEMPERATURE IN CELSIUS < > VRB - VARIABLE WIND DIRECTION < > < >>>>>>>>>>>>>>>>>>>>>>>>>>>> KEY <<<<<<<<<<<<<<<<<<<<<<<<<<<

USA.gov is the U.S. government's official web portal to all federal, state and local government web resources and services.